429  
ASUS44 KLCH 181310  
RWRLCH  
REGIONAL WEATHER ROUNDUP  
NATIONAL WEATHER SERVICE LAKE CHARLES LA  
800 AM CDT MON OCT 18 2021  
 
NOTE: "FAIR" INDICATES FEW OR NO CLOUDS BELOW 12,000 FEET WITH NO  
SIGNIFICANT WEATHER AND/OR S TO VISIBILITY
.  
 
ACROSS SOUTHEAST TEXAS  
 
CITY SKY/WX TMP DP RH WIND PRES REMARKS
 
BEAUMONT CLEAR 52 51 97 N5 30.17R  
BEAUMONT CITY FAIR 51 50 97 CALM 30.18R  
ORANGE SUNNY 53 52 96 CALM 30.19S  
JASPER CLEAR 45 45 100 CALM 30.18S  

 
 
ACROSS CENTRAL LOUISIANA  
 
CITY SKY/WX TMP DP RH WIND PRES REMARKS
 
LEESVILLE CLEAR 50 45 83 NE3 30.18R  
FULLERTON FAIR 46 43 89 CALM 30.17R  
ALEXANDRIA INT CLEAR 46 43 89 CALM 30.18R  
ESLER FIELD CLEAR 44 42 93 CALM 30.20R FOG  
DERIDDER FAIR 49 48 97 CALM 30.20S  
OAKDALE SUNNY 48 45 87 CALM 30.19R  
OPELOUSAS FAIR 46 44 91 CALM 30.19R  

 
 
ACROSS SOUTHWEST AND SOUTH CENTRAL LOUISIANA  
 
CITY SKY/WX TMP DP RH WIND PRES REMARKS
 
DEQUINCY NOT AVBL  
SULPHUR SUNNY 53 49 83 MISG 30.19R  
LAKE CHARLES CLEAR 54 48 80 NE5 30.17S  
CHENNAULT INT PTCLDY 54 46 76 CALM 30.17S  
JENNINGS FAIR 52 49 89 CALM 30.18S  
LAFAYETTE CLEAR 54 50 86 NE3 30.18R  
NEW IBERIA CLEAR 56 50 80 NE7 30.17S  
ABBEVILLE FAIR 52 47 84 CALM 30.18R  
PATTERSON N/A 54 54 100 MISG N/A  
SALT POINT N/A 58 54 86 CALM 30.15F  

 
 
SELECTED SITES ACROSS THE REGION  
 
CITY SKY/WX TMP DP RH WIND PRES REMARKS
 
HOUSTON BUSH PTCLDY 52 49 89 CALM 30.16S  
HOUSTON HOBBY PTCLDY 59 50 72 NE7 30.15F  
GALVESTON CLEAR 66 53 63 NE9 30.17R  
COLLEGE STAT CLEAR 53 47 79 CALM 30.16R  
CONROE CLEAR 47 46 97 CALM 30.17S  
HUNTSVILLE CLEAR 51 47 86 CALM 30.16S  
LUFKIN CLEAR 50 48 93 CALM 30.18S  
SHREVEPORT PTCLDY 46 43 87 NE3 30.19S  
MONROE CLEAR 47 47 100 CALM 30.23R  
NATCHEZ MS CLEAR 47 46 97 CALM 30.22R  
BATON ROUGE CLEAR 52 48 86 NE5 30.18S  
N.O. INTL ARPT PTSUNNY 63 49 60 NE6 30.17R  
SLIDELL SUNNY 52 48 86 N5 30.19R  

 
 
MARINE REPORTS  
 
STATION/POSITION TIME SKY/WX TEMP WIND PRES VSBY
 
AIR SEA DIR/SP/G  
(UTC) (F) (DEG/KT/KT) (MB) (MI)  
BUOY 30 S HIGH I 1250 69 30/ 8/ 14 1020.8R  
SEA RIM ST PARK 1300 60 10/ 5/ 5 1021.5R  
PORT ARTHUR 1230 59 76 30/ 1/ 3 1021.3R  
TEXAS POINT 1230 59 76 30/ 9/ 11 1020.1S  
CALCASIEU PASS 1230 62 76 90/ 8/ 10 1019.4S  
LK CHARLES BEACH 1230 57 74 1021.9R  
MARSH ISLAND NOT AVBL  
FRESH WATER LOCK NOT AVBL  
AMERADA PASS 1230 59 74 20/ 2/ 4 1021.3S  

 
 
 
CLICK HERE TO GO TO PREVIOUS BULLETINS.

The Nexlab LA Page
The Nexlab TX Page Main Text Page